Zurück zum Katalog

MORELOS 2

AktivKommunikationGEO
NORAD 16274·PAYLOAD·🇲🇽 Mexico

Gestartet Nov 27, 1985 von Cape Canaveral Space Force Station

Loading…

TLE

AktuellSource: Space-Track

Epoche: Sep 13, 2026, 22:33 UTC

1 16274U 85109B   26256.94026282  .00000053  00000-0  00000-0 0  9995
2 16274  14.7623 356.0180 0005113 178.8422 190.4060  0.99563600 47245

Verfolge MORELOS 2 in Echtzeit mit AllMySat

Download on the App Store